Location: Burla
(50.9568°N, 10.4983°E)
Time: 23:59:05
(UTC+00:00)

Cosmos 1805 Rocket - Pass Details

Date: 18 January 2026
Orbit: 598 x 623 km, 82.5° (Epoch: 16 February)

Event Time Altitude Azimuth Distance (km) Brightness Sun altitude
Rises 05:10:56 0° 207° (SSW) 2,893 6.8 -18.5°
Reaches altitude 10° 05:13:14 10° 214° (SSW) 1,990 5.9 -18.1°
Maximum altitude 05:17:27 43° 286° (WNW) 874 3.8 -17.5°
Drops below altitude 10° 05:21:41 10° 359° (N) 1,996 6.0 -16.8°
Sets 05:24:01 0° 6° (N) 2,902 6.9 -16.5°
